AirNav   Everest Fuels
 
 1052 users online  

2PN2 Fortman Heliport
Shrewsbury, Pennsylvania, USA

GOING TO SHREWSBURY?


FAA INFORMATION EFFECTIVE 18 JUNE 2020

Location

FAA Identifier: 2PN2
Lat/Long: 39-47-15.0000N 076-38-50.0000W
39-47.250000N 076-38.833333W
39.7875000,-76.6472222
(estimated)
Elevation: 990 ft. / 302 m (estimated)
Variation: 11W (1995)
From city: 2 miles NE of SHREWSBURY, PA
Time zone: UTC -4 (UTC -5 during Standard Time)
Zip code: 17349

Heliport Operations

Heliport use: Private use. Permission required prior to landing
Activation date: 08/1999
Control tower: no
ARTCC: WASHINGTON CENTER
FSS: WILLIAMSPORT FLIGHT SERVICE STATION
Attendance: UNATNDD
Wind indicator: yes
Segmented circle: no
Lights: FLOOD LIGHTS & BCN FOR NIGHT OPERATIONS.

Heliport Communications

WX ASOS at THV (13 nm NW): 119.275 (717-792-5529)
WX AWOS-3 at DMW (20 nm SW): 121.25 (410-876-1281)

Nearby radio navigation aids

VOR radial/distance  VOR name  Freq  Var
EMIr049/23.3WESTMINSTER VORTAC117.9008W
LRPr228/25.8LANCASTER VOR/DME117.3009W
HARr158/36.5HARRISBURG VORTAC112.5010W
BALr012/37.0BALTIMORE VORTAC115.1011W

 
NDB name  Hdg/Dist  Freq  Var  ID
ELLICOTT022/30.637111WFND ..-. -. -..
BELLGROVE196/39.132810WBZJ -... --.. .---

Heliport Services

Runway Information

Helipad H1

Dimensions: 60 x 60 ft. / 18 x 18 m
Surface: turf, in good condition
Traffic pattern: leftleft

Heliport Ownership and Management from official FAA records

Ownership: Privately-owned
Owner: LOUIS FORTMAN
1764 SWEITZER RD
NEW FREEDOM, PA 17349
Phone 717-235-3730
Manager: LOUIS FORTMAN
1764 SWEITZER RD
NEW FREEDOM, PA 17349
Phone 717-235-3730

Heliport Operational Statistics

Aircraft based on the field: 1
Helicopters: 1
    

Additional Remarks

FOR CD CTC POTOMAC APCH AT 866-429-5882

Instrument Procedures

There are no published instrument procedures at 2PN2.

Some nearby airports with instrument procedures:

KTHV - York Airport (13 nm NW)
N71 - Donegal Springs Airpark (19 nm N)
KDMW - Carroll County Regional Airport/Jack B Poage Field (20 nm SW)
0W3 - Harford County Airport (24 nm SE)
KMDT - Harrisburg International Airport (25 nm N)
 
Loc | Ops | Rwys | IFR | FBO | Links
Com | Nav | Svcs | Stats | Notes
Area around 2PN2 (Fortman Heliport)
 
Road maps at: MapQuest Bing Google
 
Aerial photo
No photo
 
Sectional chart

 
Airport distance calculator
Flying to Fortman Heliport? Find the distance to fly.

From to 2PN2

Sunrise and sunset
Times for 12-Jul-2020
 Local
(UTC-4)
 Zulu
(UTC)
Morning civil twilight05:1909:19
Sunrise05:5009:50
Sunset20:3400:34
Evening civil twilight21:0601:06

Current date and time
Zulu (UTC)  12-Jul-2020 19:33:27
Local (UTC-4)  12-Jul-2020 15:33:27
 
METAR
KTHV 
13nm NW 
121853Z AUTO VRB05KT 10SM FEW085 31/16 A2975 RMK AO2 SLP070 T03060161
KDMW 
20nm SW 
121915Z AUTO 19010KT 10SM SCT075 33/17 A2976 RMK AO2
KMDT 
25nm N 
121856Z 20007KT 10SM FEW040 SCT060 BKN085 32/16 A2973 RMK AO2 SLP065 T03170156
KLNS 
25nm NE 
121853Z 19008KT 10SM BKN065 30/17 A2975 RMK AO2 SLP070 T03000172
TAF
KMDT 
25nm N 
121748Z 1218/1318 19008KT P6SM SCT060 BKN080 BKN250 FM122200 22006KT P6SM VCTS SCT040CB BKN080 FM130200 VRB03KT P6SM BKN050 FM131200 31006KT P6SM BKN250
KLNS 
25nm NE 
121748Z 1218/1318 27007KT P6SM SCT050 SCT060 FM122200 22006KT P6SM VCTS SCT040CB BKN080 FM130200 VRB03KT P6SM BKN050 FM131200 29003KT P6SM BKN250
KMTN 
30nm S 
121723Z 1218/1318 19008KT P6SM SCT060 FM122100 18009KT P6SM VCTS BKN060CB FM130100 21005KT P6SM BKN060 FM130600 VRB03KT P6SM BKN090
NOTAMs
Click for the latest NOTAMs
NOTAMs are issued by the DoD/FAA and will open in a separate window not controlled by AirNav.

 

 
 

Would you like to see your business listed on this page?

 If your business provides an interesting product or service to pilots, flight crews, aircraft, or users of the Fortman Heliport, you should consider listing it here.  To start the listing process, click on the button below
 
Add a business
 

Other Pages about Fortman Heliport

Update a link
 
Copyright © AirNav, LLC. All rights reserved. Privacy Policy  Contact